Temperature
16 16 16 16 16 16 16 16 16 16 16 16 15 15 15 15 15 15 15 15 16 16 16 16 16 16 16 16 16 16 16 16 16 16 17 17 17 17 17 17 17 17 17
16 16 16 16 16 16 16 16 15 16 15 15 15 15 15 15 15 15 15 15 15 15 15 15 16 16 16 16 16 16 16 16 16 16 16 16 17 17 17 17 17 17 17
16 16 16 15 15 15 15 15 15 15 15 15 15 15 15 15 15 15 15 15 15 15 15 15 15 16 16 16 16 16 16 16 16 16 16 16 16 16 16 16 17 17 17
15 15 15 15 15 15 15 15 15 15 15 15 15 15 15 15 15 15 15 15 15 15 15 15 15 15 16 16 16 16 16 16 16 16 16 16 16 16 16 16 16 17 17
15 15 15 15 15 15 15 15 15 15 15 15 15 15 15 15 15 15 15 15 15 15 15 15 15 15 15 15 16 16 16 16 16 16 16 16 16 16 16 16 16 16 16
15 15 15 15 15 15 15 15 15 15 15 15 15 15 15 14 14 14 14 14 14 15 15 15 15 15 15 15 15 15 15 15 15 15 16 16 16 16 16 16 16 16 16
15 15 15 15 15 15 15 15 15 15 15 15 15 15 14 14 14 14 14 14 14 14 14 15 15 15 15 15 15 15 15 15 15 15 15 15 15 16 16 16 16 16 16
15 15 15 15 15 15 15 15 15 15 15 15 15 15 14 14 14 14 14 14 14 14 14 14 14 15 15 15 15 15 15 15 15 15 15 15 15 15 15 15 16 16 16
15 15 15 15 15 15 15 15 15 15 15 15 15 15 15 14 14 14 14 14 14 14 14 14 14 14 15 15 15 15 15 15 15 15 15 15 15 15 15 15 15 15 15
15 15 15 15 15 15 15 15 15 15 15 15 15 15 15 15 14 14 14 14 14 14 14 14 14 14 14 14 14 14 15 15 15 15 14 15 15 15 14 15 15 15 15
15 15 15 15 15 15 15 15 15 15 15 15 15 15 15 15 15 14 14 14 14 13 14 14 14 14 14 14 14 14 14 14 14 14 14 14 14 14 14 14 14 15 15
15 15 15 15 15 15 15 15 15 15 15 15 15 15 15 15 15 15 14 14 13 13 13 13 14 14 14 14 14 14 14 14 14 14 14 14 14 14 14 14 14 14 14
15 15 15 15 15 15 15 15 15 15 15 15 15 15 15 15 15 15 15 14 14 13 13 13 13 13 13 14 14 14 14 14 14 14 14 14 14 14 14 14 14 14 14
15 15 15 15 15 15 15 15 15 15 15 15 15 15 15 15 15 15 14 14 14 13 13 13 13 13 13 13 13 13 14 14 14 14 14 14 14 14 14 14 14 14 14
15 15 15 15 15 15 15 15 15 15 15 15 15 15 15 15 15 14 14 14 14 14 13 13 13 13 13 13 13 13 13 13 13 13 13 13 13 13 13 13 13 13 13
15 15 15 15 15 15 15 15 15 15 15 15 15 15 15 15 14 14 14 14 14 14 14 13 13 13 13 13 13 13 13 13 13 13 13 13 13 13 13 13 13 13 13
15 15 15 15 15 15 15 15 15 15 15 15 15 15 15 15 14 14 14 14 14 14 14 14 13 13 13 13 13 13 13 13 13 13 13 13 13 13 13 13 13 13 13
15 15 15 15 15 15 15 15 15 15 15 15 15 15 15 15 14 14 14 14 14 14 14 14 13 13 13 13 13 13 13 13 13 13 13 13 13 12 12 12 12 12 12
15 15 15 15 15 15 15 15 15 15 15 15 15 15 15 14 14 14 14 14 14 14 14 14 13 13 13 13 13 13 13 13 13 12 12 12 12 12 12 12 12 12 12
15 15 15 15 15 15 15 15 15 15 15 15 15 15 15 15 14 14 14 14 14 14 14 13 13 13 13 13 13 13 13 13 12 12 12 12 12 12 12 12 12 12 12
16 15 15 15 15 15 15 15 15 15 15 15 15 15 15 14 14 14 14 14 14 14 13 13 13 13 13 13 13 13 13 12 12 12 12 12 12 12 12 12 11 11 11
16 16 15 15 15 15 15 15 15 15 15 15 15 14 14 14 14 14 14 14 14 14 13 13 13 13 13 13 13 13 12 12 12 12 12 12 12 12 11 11 11 11 11
16 16 16 15 15 15 15 15 15 15 15 15 14 14 14 14 14 14 14 14 14 13 13 13 13 13 13 13 13 13 12 12 12 12 12 12 12 12 11 11 11 11 10
16 16 16 15 15 15 15 15 15 15 15 15 14 14 14 14 14 14 14 14 14 13 13 13 13 13 13 12 12 12 12 12 12 12 11 11 11 11 11 11 11 10 10
16 15 15 15 15 15 15 15 15 15 15 14 14 14 14 14 14 14 14 14 14 13 13 13 13 13 12 12 12 12 12 12 12 11 11 11 11 11 11 11 10 10 10
15 15 15 15 15 15 15 15 15 15 15 14 14 14 14 14 14 14 13 13 13 13 13 13 12 12 12 12 12 12 11 11 11 11 11 10 10 10 10 10 10 10 9
Wind_Speed
2 3 3 5 5 6 5 5 6 7 7 7 8 8 8 8 9 9 10 14 14 14 13 13 13 14 14 14 14 14 14 14 14 15 15 15 16 15 13 12 10 8 7
3 3 3 4 5 5 6 6 6 5 5 6 7 8 8 8 9 10 10 12 14 15 15 15 15 15 15 15 15 15 15 15 15 15 15 16 16 16 15 14 12 11 9
5 4 3 3 4 5 7 7 7 7 5 6 7 7 7 8 9 9 10 11 12 14 15 16 16 16 16 16 16 16 16 15 16 16 16 17 17 16 15 15 14 13 12
7 5 3 3 4 6 6 5 4 5 6 6 6 5 5 7 8 9 10 11 11 11 13 15 16 16 17 17 17 17 16 16 16 16 17 17 17 17 17 16 16 16 15
7 6 4 4 5 5 4 4 4 4 5 5 6 6 6 5 6 8 8 10 11 11 12 13 15 16 17 17 17 17 17 16 16 17 18 18 18 18 18 18 18 18 16
7 7 5 5 5 4 4 4 5 5 4 4 7 7 6 5 6 7 7 8 10 11 12 13 13 13 16 17 17 17 17 17 17 17 17 18 18 18 19 19 19 19 18
6 6 5 4 4 4 4 5 4 6 4 3 4 4 5 6 7 6 6 6 7 9 11 12 12 12 12 15 17 17 17 17 17 17 18 18 18 18 19 19 19 19 18
5 5 5 3 3 4 5 4 4 3 3 3 3 3 3 4 5 6 5 5 6 8 9 11 12 12 12 12 14 17 17 18 17 17 17 18 18 18 18 18 19 19 18
5 5 5 5 4 3 4 3 4 4 3 2 3 3 3 2 1 4 5 5 5 5 6 8 11 12 12 12 13 15 17 17 17 17 18 17 17 18 18 18 19 19 18
5 5 5 5 4 3 3 3 3 3 4 2 2 3 2 3 3 1 3 4 5 5 5 6 8 10 11 12 12 14 15 16 17 17 17 17 18 18 18 18 18 18 19
5 5 5 5 4 3 3 3 3 3 2 3 2 2 3 3 3 3 1 2 3 3 4 5 6 8 10 11 11 13 14 15 15 16 16 17 17 18 18 18 18 18 18
3 4 5 5 4 3 3 3 3 3 2 3 2 2 2 2 2 3 2 1 1 2 3 4 5 7 8 10 10 12 13 14 14 15 15 16 16 17 17 17 17 17 18
1 2 3 3 3 3 4 4 4 3 3 3 3 2 2 2 3 3 3 2 1 2 2 3 4 6 7 9 10 11 12 13 13 13 14 15 15 16 16 16 16 17 17
1 1 3 3 3 4 4 4 3 2 2 3 3 2 2 2 2 3 3 4 2 2 2 3 2 4 6 7 8 10 10 12 12 12 13 14 15 15 15 15 15 15 15
2 3 3 4 4 4 5 4 4 3 3 3 3 3 3 2 2 2 3 3 4 2 1 2 2 3 5 6 7 8 9 10 11 12 12 13 13 14 14 14 14 14 14
2 3 3 3 4 4 4 4 4 3 5 3 3 4 3 2 2 2 3 2 3 3 1 1 1 2 3 4 6 8 8 9 10 11 12 12 12 12 13 13 13 14 14
3 4 3 4 4 3 3 4 4 4 4 3 3 4 3 3 3 2 2 2 2 3 3 0 1 1 2 3 5 6 7 7 8 10 11 11 11 11 12 12 13 13 13
3 4 4 4 3 3 3 4 4 3 4 3 3 3 3 3 3 2 2 3 2 2 3 2 1 1 2 2 3 3 5 5 6 8 9 9 9 10 10 11 12 12 13
4 4 4 4 3 3 3 3 3 3 3 2 2 3 2 3 3 2 3 3 2 3 3 3 1 1 1 1 2 3 4 4 5 5 7 7 8 8 9 10 10 11 11
5 4 4 3 3 3 3 3 3 3 3 2 1 2 2 3 3 3 3 3 3 4 3 3 2 1 1 1 1 2 3 3 3 5 6 6 6 7 7 8 8 9 9
4 4 4 3 3 3 3 4 3 3 3 2 2 1 1 2 4 3 3 3 4 3 3 3 1 1 1 1 1 1 1 2 2 2 3 4 5 5 6 6 6 6 7
4 4 4 4 3 2 4 5 5 3 3 2 1 1 1 1 2 3 4 5 5 4 3 2 1 1 2 1 1 1 0 1 2 2 2 3 3 3 4 4 4 4 5
4 4 3 4 3 2 4 5 6 4 3 2 1 1 1 1 2 2 3 3 1 2 4 4 3 3 3 3 2 1 1 1 2 2 1 2 2 2 4 5 4 3 3
4 3 3 3 3 2 3 5 6 4 3 1 1 1 2 0 1 2 2 2 1 1 1 2 3 3 3 3 4 3 2 1 2 2 1 1 2 2 3 5 4 3 3
4 3 3 3 3 2 3 5 6 4 2 1 1 1 2 1 1 3 3 1 1 2 2 0 1 2 2 2 4 3 1 1 2 2 1 1 2 2 2 3 4 4 4
4 4 3 3 3 2 2 4 7 4 3 1 1 0 1 1 1 2 3 2 1 2 1 2 3 3 3 2 1 3 3 2 1 2 2 1 1 1 3 2 3 4 4
Wind_Direction
68 59 52 59 59 61 64 65 68 69 68 70 76 77 69 61 55 50 41 47 49 47 47 48 46 44 42 41 41 38 36 35 33 32 29 27 25 27 32 35 34 35 35
97 84 69 65 63 68 76 74 74 71 67 70 67 67 66 63 57 53 46 42 45 47 46 46 45 43 42 42 42 41 39 38 36 35 34 32 30 30 33 34 35 38 40
105 96 83 69 65 80 85 80 73 70 68 67 61 57 60 60 58 52 48 42 39 41 43 45 44 42 41 41 41 41 40 39 38 36 36 33 31 31 33 35 38 42 46
107 102 93 78 84 89 87 82 71 71 64 64 60 49 50 53 53 52 50 46 41 38 37 42 43 41 41 40 39 40 40 40 40 39 37 35 33 34 39 41 44 46 49
105 104 96 92 98 89 81 90 75 83 82 78 73 55 45 45 39 46 45 46 44 41 38 37 39 39 39 39 38 40 41 42 42 41 39 38 38 40 42 46 48 48 50
101 100 93 88 94 90 78 82 87 74 78 83 81 64 48 43 42 38 36 40 43 41 41 41 37 34 36 37 36 39 40 41 42 41 40 40 42 44 46 48 49 48 50
98 98 95 86 89 93 97 100 97 86 70 71 84 62 39 40 47 35 30 37 38 39 44 42 37 34 31 32 33 37 38 40 43 43 44 44 45 46 48 50 49 49 52
91 103 100 96 94 98 96 99 106 102 71 44 100 95 50 18 21 27 25 35 33 37 39 39 37 33 31 30 29 36 39 41 43 45 47 47 48 49 50 50 50 50 51
84 97 106 107 102 105 114 114 118 118 117 48 56 125 130 168 359 4 20 29 27 33 26 30 33 29 29 30 30 33 40 41 43 47 48 49 50 50 50 51 51 51 52
72 88 102 106 103 98 109 118 110 115 127 120 63 56 104 141 135 54 360 11 26 33 22 25 23 25 29 31 32 34 40 42 44 47 47 48 50 50 50 51 52 52 53
56 74 94 98 99 100 104 102 104 108 122 139 137 118 90 73 91 129 98 356 12 13 13 16 20 21 25 28 32 37 41 42 45 47 47 47 50 51 51 51 51 52 53
40 57 82 87 92 97 102 107 106 109 116 122 128 135 144 138 142 130 138 129 15 343 359 8 17 16 21 27 33 37 41 43 46 48 48 47 49 50 51 51 51 52 52
53 46 70 81 85 97 101 102 101 103 111 118 130 134 136 137 140 136 132 134 82 342 352 359 7 16 22 27 29 35 41 43 46 50 50 49 48 48 49 49 50 51 51
144 107 96 91 89 94 96 95 90 93 94 100 105 108 103 100 126 140 143 138 103 20 12 342 345 9 19 27 31 38 39 43 47 50 52 51 49 49 49 49 49 49 49
143 116 105 96 89 91 97 98 88 80 87 81 87 92 92 87 100 109 125 137 138 125 332 317 337 351 13 28 32 42 41 43 46 48 49 50 50 49 49 48 48 46 45
118 118 101 98 94 91 96 95 89 84 86 74 83 89 84 82 85 94 111 108 119 140 155 280 298 325 6 31 37 43 43 45 44 46 46 46 47 47 47 47 46 45 47
137 133 126 116 110 104 98 96 93 96 94 82 80 92 82 84 88 82 95 103 102 119 133 289 325 357 25 33 28 34 39 41 39 43 43 42 41 41 43 44 44 45 47
147 140 134 125 121 114 108 112 111 107 108 103 95 95 87 88 81 77 92 99 108 117 134 136 15 8 17 21 23 26 29 35 35 38 39 39 39 39 40 42 43 45 47
140 133 133 135 134 128 122 121 124 121 116 117 120 120 122 113 98 93 97 95 93 98 104 126 106 25 9 22 34 28 28 24 25 29 30 31 35 37 38 38 39 40 43
146 145 143 143 142 137 135 133 126 121 114 104 112 127 142 144 145 131 113 108 105 97 95 102 90 46 17 2 45 32 9 5 5 16 15 18 25 30 32 31 31 35 39
153 150 141 136 137 145 157 151 142 133 126 104 77 86 129 154 160 155 143 142 128 115 107 104 100 64 6 6 347 335 1 344 345 2 356 1 6 10 8 10 18 25 31
140 139 148 148 150 165 163 162 149 136 132 128 112 63 59 104 133 137 140 150 155 150 154 150 163 187 238 227 199 152 125 17 324 342 7 336 4 341 331 341 351 8 19
148 146 154 149 151 173 165 155 152 136 134 142 146 132 92 85 102 100 88 88 109 163 175 169 181 211 213 210 179 184 197 203 242 287 29 309 333 317 312 321 334 346 356
154 158 160 158 154 184 168 152 144 126 119 121 135 155 150 124 135 137 117 84 39 357 262 185 201 222 222 202 185 185 189 206 288 291 167 272 308 299 314 319 323 322 328
155 158 155 157 162 200 182 162 143 128 122 116 106 134 168 190 230 141 133 135 352 330 2 87 223 250 260 229 181 136 117 85 314 294 218 219 287 300 300 305 317 317 311
158 151 145 158 167 186 184 166 150 136 138 144 58 23 189 188 202 143 153 161 216 283 353 20 22 13 7 355 217 188 181 175 219 276 248 194 268 329 314 297 308 315 311
Height
1550 1551 1551 1551 1551 1551 1551 1552 1552 1552 1553 1553 1553 1554 1554 1553 1553 1553 1553 1552 1552 1551 1550 1549 1548 1546 1545 1543 1541 1539 1538 1535 1533 1531 1529 1525 1522 1517 1514 1515 1515 1515 1515
1552 1552 1552 1553 1553 1553 1553 1553 1554 1554 1554 1555 1555 1555 1555 1555 1555 1555 1555 1554 1553 1553 1552 1551 1549 1548 1546 1545 1543 1541 1539 1537 1535 1533 1530 1527 1524 1521 1518 1516 1516 1515 1514
1553 1553 1554 1554 1554 1555 1555 1555 1555 1556 1556 1557 1557 1557 1557 1557 1557 1557 1556 1556 1555 1554 1553 1552 1551 1549 1548 1546 1544 1543 1540 1538 1536 1534 1532 1529 1526 1523 1519 1516 1516 1515 1515
1554 1554 1555 1555 1556 1556 1556 1556 1557 1557 1558 1558 1559 1559 1559 1559 1559 1559 1558 1558 1557 1556 1555 1554 1552 1551 1550 1548 1546 1544 1542 1540 1538 1536 1533 1530 1527 1524 1520 1517 1516 1516 1516
1555 1556 1556 1556 1557 1557 1557 1558 1558 1559 1559 1560 1560 1560 1560 1561 1561 1560 1560 1559 1558 1558 1557 1555 1554 1553 1551 1549 1548 1546 1543 1541 1539 1537 1534 1532 1529 1526 1523 1520 1519 1519 1519
1556 1557 1557 1557 1558 1558 1558 1559 1560 1560 1561 1561 1561 1562 1562 1562 1562 1562 1561 1561 1560 1559 1558 1557 1555 1554 1553 1551 1549 1547 1545 1543 1541 1538 1536 1533 1531 1529 1527 1525 1523 1523 1522
1557 1557 1558 1558 1558 1559 1559 1560 1560 1561 1562 1562 1563 1563 1563 1564 1564 1563 1563 1562 1562 1561 1560 1559 1557 1556 1554 1553 1551 1549 1547 1545 1543 1540 1537 1535 1533 1531 1530 1528 1527 1526 1525
1558 1558 1558 1559 1559 1559 1560 1561 1561 1562 1563 1563 1564 1564 1565 1566 1565 1565 1564 1564 1563 1563 1562 1560 1559 1558 1556 1554 1553 1551 1549 1547 1545 1542 1540 1537 1536 1534 1533 1532 1531 1529 1528
1559 1559 1559 1559 1560 1560 1561 1561 1562 1563 1563 1564 1564 1565 1565 1566 1566 1567 1566 1565 1565 1564 1563 1562 1561 1560 1558 1556 1555 1553 1552 1550 1547 1545 1543 1541 1539 1538 1537 1535 1534 1533 1531
1560 1560 1560 1560 1560 1561 1561 1562 1562 1563 1564 1564 1565 1565 1566 1566 1566 1567 1568 1567 1566 1565 1565 1564 1563 1561 1560 1558 1557 1555 1554 1552 1550 1548 1546 1544 1543 1541 1540 1538 1537 1536 1535
1560 1561 1561 1561 1561 1562 1562 1562 1563 1564 1564 1565 1565 1565 1566 1566 1566 1567 1567 1568 1568 1567 1566 1565 1564 1563 1562 1561 1559 1558 1556 1554 1553 1551 1549 1547 1546 1544 1542 1541 1540 1538 1537
1561 1561 1562 1562 1562 1562 1563 1563 1563 1564 1564 1565 1565 1566 1566 1566 1566 1567 1567 1568 1568 1568 1568 1567 1566 1565 1564 1563 1561 1560 1558 1557 1555 1553 1552 1550 1548 1547 1545 1544 1542 1541 1539
1562 1562 1562 1563 1563 1563 1563 1564 1564 1564 1564 1565 1565 1565 1566 1566 1566 1567 1567 1568 1568 1569 1569 1568 1567 1566 1565 1564 1563 1562 1560 1559 1557 1555 1554 1552 1551 1549 1548 1546 1544 1543 1541
1562 1563 1563 1563 1564 1564 1564 1564 1564 1565 1565 1565 1565 1565 1566 1566 1567 1567 1568 1568 1568 1569 1569 1569 1569 1568 1567 1566 1565 1564 1562 1561 1559 1557 1556 1554 1553 1551 1550 1548 1546 1544 1543
1563 1563 1564 1564 1564 1564 1565 1565 1565 1565 1565 1565 1566 1566 1566 1566 1567 1568 1568 1569 1570 1569 1570 1570 1569 1569 1568 1567 1566 1565 1564 1562 1561 1560 1558 1557 1555 1554 1552 1550 1548 1546 1544
1563 1564 1564 1565 1565 1565 1566 1566 1566 1566 1566 1566 1566 1566 1567 1567 1568 1568 1569 1569 1570 1570 1570 1570 1570 1570 1569 1568 1568 1567 1566 1564 1563 1561 1560 1558 1557 1555 1553 1551 1549 1547 1544
1564 1565 1565 1566 1566 1566 1567 1567 1567 1567 1567 1567 1567 1567 1568 1568 1568 1569 1569 1569 1570 1570 1570 1570 1570 1570 1570 1569 1569 1568 1567 1566 1564 1563 1562 1560 1558 1557 1555 1553 1550 1548 1546
1564 1565 1566 1566 1567 1567 1567 1568 1568 1568 1568 1568 1568 1568 1568 1569 1569 1569 1570 1570 1570 1570 1570 1570 1571 1571 1571 1570 1570 1569 1568 1567 1566 1564 1563 1561 1560 1558 1556 1554 1552 1549 1547
1565 1565 1566 1567 1567 1568 1568 1568 1569 1569 1569 1569 1569 1569 1569 1570 1570 1570 1570 1570 1570 1571 1571 1571 1571 1571 1571 1570 1570 1569 1568 1567 1566 1565 1564 1562 1561 1559 1557 1555 1553 1551 1549
1565 1566 1566 1567 1568 1568 1569 1569 1569 1570 1570 1570 1570 1570 1570 1570 1570 1570 1571 1571 1571 1571 1571 1571 1571 1571 1571 1570 1570 1569 1568 1568 1567 1566 1564 1563 1561 1559 1557 1555 1553 1552 1550
1565 1566 1567 1567 1568 1569 1569 1569 1570 1570 1570 1570 1571 1571 1571 1571 1571 1571 1571 1571 1571 1571 1571 1571 1571 1571 1571 1570 1569 1569 1568 1567 1566 1565 1564 1563 1561 1559 1558 1556 1554 1552 1550
1565 1566 1567 1568 1568 1569 1569 1570 1570 1571 1571 1571 1571 1571 1571 1571 1571 1572 1571 1571 1571 1571 1571 1571 1571 1570 1570 1570 1569 1568 1567 1566 1565 1565 1564 1562 1561 1559 1558 1556 1554 1553 1551
1564 1565 1566 1567 1568 1569 1569 1570 1570 1570 1571 1571 1571 1571 1571 1572 1572 1572 1572 1571 1571 1571 1571 1571 1570 1570 1570 1569 1568 1567 1566 1566 1565 1564 1562 1561 1560 1558 1557 1555 1554 1552 1550
1563 1565 1566 1567 1568 1569 1569 1570 1570 1570 1570 1571 1571 1571 1571 1571 1572 1571 1571 1571 1571 1571 1570 1570 1570 1569 1569 1568 1567 1566 1565 1564 1563 1562 1561 1559 1558 1557 1555 1554 1552 1551 1549
1561 1563 1565 1566 1567 1568 1569 1569 1569 1570 1570 1570 1570 1570 1571 1571 1571 1571 1571 1570 1570 1570 1569 1569 1568 1568 1567 1566 1565 1565 1563 1562 1561 1560 1559 1557 1556 1554 1553 1552 1550 1549 1547
1560 1562 1563 1564 1566 1567 1567 1568 1568 1569 1569 1569 1569 1569 1570 1570 1570 1569 1569 1569 1568 1568 1568 1567 1567 1566 1565 1564 1563 1563 1561 1560 1559 1557 1556 1555 1553 1552 1550 1548 1548 1546 1544